Powrót do katalogu

STARLINK-36858

AktywnyŁącznośćSSO
NORAD 68021·PAYLOAD·🇺🇸 United States

Wystrzelony Mar 1, 2026 z Vandenberg Space Force Base

Loading…

Następne Przeloty (najbliższe 24 godziny)

TLE

ŚwieżeSource: CelesTrak SupGP

Epoka: Sep 14, 2026, 22:28 UTC

1 68021C 26040G   26257.93659722 -.00055328  00000+0 -17178-2 0  2571
2 68021  97.2855 205.3257 0001763  90.9455 259.6475 15.33462137    12

Śledź STARLINK-36858 w czasie rzeczywistym z AllMySat

Download on the App Store